www.pogodaiklimat.ru

Погода и климат >> Архив погоды >> Россия >> Коми >> Сыктывкар


АРХИВ ПОГОДЫ в Сыктывкаре

Время (UTC), дата Ветер
(напр.,м/с)
 
Видим.   Явления Облачность Т
(С)
Тd
(С)
f
(%)
Тe
(С)
Тes
(С)
Комфортность P
(гПа)
Po
(гПа)
Тmin
(С)
Tmax
(С)
R
(мм)
R24
(мм)
S
(см)
03 15.08 ЮЗ 1 10 км 9/4 600 м
[Sc Ac trans]
+11.4 +10.3 93 +11 +12 по сезону 1013.6 999.6 +8.7
06 15.08 Ю 1 10 км 10/0
[Ac As]
+15.1 +11.6 80 +16 +18 тепло 1013.4 999.6
09 15.08 Ю 1 10 км 10/0
[Ac lent]
+17.8 +11.3 66 +19 +21 тепло 1012.1 998.5
12 15.08 ЮВ 2 10 км 10/0
[Ac As]
+17.1 +12.1 72 +17 +19 по сезону 1011.1 997.5
15 15.08 ЮВ 2 4000 м слаб. ливневой дождь 10/0 600 м
[Ac As Cc]
+17.0 +13.4 79 +17 +17 тепло 1008.5 994.9 +18.3 0.0
18 15.08 Ю 2 10 км {гроза, ливн. осадки} 10/5 600 м
[Cb cap Ac und]
+15.4 +14.9 97 +15 +15 тепло 1006.8 993.2
21 15.08 ЮЗ 2 10 км в посл. час ливневой дождь 10/10 270 м
[Cb cap]
+16.1 +15.9 99 +16 +16 тепло 1005.3 991.7
00 16.08 З 3
{11}
4000 м слаб. ливневой дождь 10/8 720 м
[Cb cap Ac und]
+15.3 +14.6 96 +15 +15 тепло 1007.8 994.1
03 16.08 З 1 10 км {ливн. осадки} 4/1 600 м
[Cu hum Ac trans Ci fib]
+13.5 +11.4 87 +14 +15 тепло 1011.1 997.3 +13.0 6
06 16.08 ЮЗ 2 10 км {ливн. осадки} 8/0
[Ac trans Ci fib]
+16.5 +11.5 72 +17 +22 тепло 1012.2 998.5
09 16.08 З 2 10 км 10/3 600 м
[Cu hum Ac trans Ci fib]
+18.7 +11.6 63 +20 +23 тепло 1012.5 998.9
12 16.08 ЮЗ 2 10 км 9/3 600 м
[Cb calv Ac trans Ci fib]
+19.2 +11.2 60 +21 +23 комфорт 1013.1 999.5
15 16.08 ЮЗ 1 10 км 8/5 600 м
[Cu hum Ci fib]
+18.1 +11.7 66 +19 +20 тепло 1013.1 999.5 +19.6
18 16.08 ЮЗ 1 10 км 8/0
[Ac trans Ci fib]
+12.0 +11.5 97 +12 +12 по сезону 1014.5 1000.5
21 16.08 штиль 0 10 км 8/0
[Ac trans Ci fib]
+11.7 +11.1 96 +11 +11 по сезону 1015.8 1001.8
00 17.08 штиль 0 10 км 4/0
[Ci fib]
+9.0 +8.8 99 +8 +8 по сезону 1017.3 1003.2
03 17.08 штиль 0 10 км 8/0
[Ci fib]
+11.6 +11.4 99 +11 +12 по сезону 1017.9 1003.9 +8.0
06 17.08 ЮЗ 1 10 км 1/0
[Ci fib]
+18.6 +11.5 63 +20 +28 тепло 1018.4 1004.7
09 17.08 З 1 10 км 8/5 600 м
[Cb cap Ac trans]
+21.0 +11.3 54 +24 +28 комфорт 1018.4 1004.8
12 17.08 СЗ 1 10 км 5/5 1000 м
[Cu med, cong]
+21.9 +10.2 47 +24 +27 комфорт 1018.3 1004.8
15 17.08 штиль 0 10 км 3/1 1000 м
[Cu hum Ac trans]
+18.7 +9.9 57 +19 +20 тепло 1019.1 1005.4 +22.4
18 17.08 штиль 0 10 км ясно +11.1 +10.8 98 +10 +10 по сезону 1020.3 1006.2
21 17.08 штиль 0 10 км ясно +8.2 +8.2 100 +7 +7 прохладно 1020.9 1006.7
00 18.08 штиль 0 10 км ясно +6.4 +6.3 99 +5 +5 прохладно 1022.1 1007.8
03 18.08 штиль 0 10 км 3/0
[Ci fib]
+10.1 +9.9 99 +9 +11 по сезону 1022.7 1008.6 +5.9
06 18.08 В 1 10 км 4/0
[Cs]
+18.7 +10.9 60 +20 +28 тепло 1022.7 1009.0
09 18.08 СВ 1 10 км 8/3 600 м
[Cu hum Ci fib]
+21.6 +10.4 49 +23 +30 комфорт 1022.3 1008.7
12 18.08 СВ 2 10 км 8/3 1000 м
[Cu hum Ac trans Ci fib]
+21.8 +10.6 49 +24 +26 комфорт 1021.9 1008.3
15 18.08 В 1 10 км 8/0
[Ac As Ci fib]
+19.7 +12.3 62 +22 +23 комфорт 1022.4 1008.7 +22.7
18 18.08 штиль 0 10 км 8/0
[Ac trans Cc]
+14.2 +12.2 88 +14 +14 тепло 1022.9 1009.0
21 18.08 ЮВ 1 10 км 10/0
[Ac und]
+15.4 +10.8 74 +16 +16 тепло 1022.5 1008.6
00 19.08 В 1 4000 м слаб. ливневой дождь 9/5 600 м
[Cb cap Ac und]
+14.3 +11.3 82 +15 +15 тепло 1022.5 1008.6
03 19.08 В 2 10 км {ливн. осадки} 10/5 600 м
[Sc Ac und]
+14.3 +11.2 82 +14 +14 тепло 1021.7 1007.8 +12.6 0.4
06 19.08 В 2 10 км {ливн. осадки} 10/3 600 м
[Cb cap Ac und]
+16.9 +12.1 73 +17 +19 тепло 1020.7 1006.9
09 19.08 ЮВ 4 10 км {ливн. осадки} 10/3 600 м
[Cb cap Ac cast Ci fib]
+19.6 +14.3 71 +21 +24 комфорт 1019.6 1006.0
12 19.08 ЮВ 3 4000 м слаб. ливневой дождь 10/6 700 м
[Cb cap Ac As]
+18.6 +15.0 80 +20 +20 тепло 1019.3 1005.7
15 19.08 ЮВ 2 4000 м слаб. ливневой дождь 10/10 240 м
[Cb calv]
+16.9 +16.4 97 +17 +17 тепло 1018.7 1005.0 +20.1 3
18 19.08 ЮВ 2 4000 м слаб. дождь 10/10 240 м
[Frnb]
+16.3 +15.8 97 +16 +16 тепло 1018.2 1004.4
21 19.08 В 1 4000 м слаб. ливневой дождь 10/10 180 м
[Cb calv]
+15.9 +15.7 99 +17 +17 тепло 1016.7 1003.0
00 20.08 штиль 0 1000 м дымка {ливн. осадки, дождь} 10/10 120 м
[St]
+15.9 +15.9 100 +16 +16 тепло 1016.5 1002.7
03 20.08 СВ 1 500 м туман ?/? +16.0 +15.5 97 +17 +17 тепло 1016.7 1003.0 +15.9 2
06 20.08 штиль 0 1000 м слаб. морось {туман} 10/10 90 м
[St]
+16.3 +15.9 97 +16 +16 тепло 1017.3 1003.5
09 20.08 С 1 2000 м слаб. морось 10/10 180 м
[St]
+17.0 +16.6 97 +18 +18 тепло 1018.0 1004.3
12 20.08 штиль 0 10 км {морось} 10/10 330 м
[Frnb]
+18.0 +17.4 96 +18 +18 тепло 1018.9 1005.2
15 20.08 штиль 0 10 км 10/10 480 м
[Sc]
+18.3 +17.1 93 +19 +19 тепло 1019.8 1005.8 +18.3 0.0
18 20.08 штиль 0 10 км 8/5 300 м
[Sc Ac trans Cs]
+17.2 +16.4 95 +17 +17 тепло 1020.2 1006.1
21 20.08 штиль 0 10 км 8/4 300 м
[Sc Ac trans]
+16.5 +16.0 97 +16 +16 тепло 1020.7 1006.6
00 21.08 штиль 0 10 км 9/5 600 м
[Sc Ac trans]
+15.6 +15.1 97 +15 +15 тепло 1020.6 1006.4
03 21.08 штиль 0 10 км 8/3 600 м
[Sc Ac trans Ci fib]
+15.7 +15.1 96 +15 +16 тепло 1020.6 1006.4 +15.4
06 21.08 Ю 1 10 км ?/? +18.9 +17.3 90 +21 +21 комфорт 1020.6 1006.6
09 21.08 Ю 1 10 км {ливн. осадки} 10/3 200 м
[Cb calv Ac As]
+19.2 +17.3 89 +22 +22 комфорт 1020.3 1006.3
12 21.08 Ю 1 10 км {ливн. осадки} 10/3 200 м
[Cb calv Ac As]
+21.0 +16.7 76 +26 +27 душно 1019.6 1005.7
15 21.08 штиль 0 4000 м слаб. ливневой дождь 10/8 400 м
[Cb calv As op]
+19.0 +18.5 97 +21 +21 комфорт 1019.6 1005.6 +21.1 0.4
18 21.08 СЗ 1 4000 м дымка {ливн. осадки} 10/9 150 м
[Cb cap Ac und]
+17.8 +16.9 94 +19 +19 тепло 1020.0 1005.9
21 21.08 З 1 500 м туман 10/10 90 м
[St]
+16.0 +15.5 97 +17 +17 тепло 1020.1 1006.0
00 22.08 СЗ 1 500 м туман 10/10 90 м
[St]
+15.8 +15.3 97 +16 +16 тепло 1020.4 1006.2

 

Местоположение метеостанции Сыктывкар (Коми, Россия): широта 61.68 долгота 50.78 высота над уровнем моря 119 м.

В архиве по умолчанию представлена погода в Сыктывкаре за последнюю неделю. Архивные данные за месяц целиком и за предыдущие месяцы, начиная с января 2011 года, Вы можете получить, выбрав интересующий диапазон дат из раскрывающегося списка и нажав кнопку "Ввод!".


*Определитесь, кто Вы:
робот инопланетянин человек

Внимание! Время в таблицах - всемирное. Для получения местного времени необходимо прибавить поправку, которая равна 3 ч.

Смотрите также архив погоды в соседних городах и на ближайших метеорологических станциях:

Погода в Усть-Выми (Коми, Россия) (64 км)
Погода в Пустоши (Коми, Россия) (68 км)
Погода в Яренске (Архангельская область, Россия) (103 км)
Погода в Луни (Коми, Россия) (108 км)
Погода в Слободчиково (Архангельская область, Россия) (133 км)
Погода в Койгородке (Коми, Россия) (137 км)
Погода в Весляне (Коми, Россия) (145 км)
Погода в Усть-Куломе (Коми, Россия) (153 км)
Погода в Объячеве (Коми, Россия) (158 км)
Погода в Вилегодском (Архангельская область, Россия) (162 км)

Пояснения к столбцам:

Ветер - указаны скорость ветра в м/с - средняя за 10 мин, порывы в срок и между сроками (в фигурных скобках) и направление, откуда дует ветер: С - северный, СВ - северо-восточный, В - восточный, ЮВ - юго-восточный, Ю - южный, ЮЗ - юго-западный, З - западный, СЗ - северо-западный.
Видимость - горизонтальная дальность видимости в метрах или километрах. При видимости от 1 до 10 км при отсутствии осадков обычно наблюдается дымка, при ухудшении видимости до 1 км и менее - туман. В сухую погоду видимость может ухудшаться дымом, пылью или мглою.
Явления - указаны атмосферные явления, наблюдавшиеся в срок или в последний час перед сроком; фигурными скобками обозначены явления, наблюдавшиеся между сроками (за 1-3 часа до срока); квадратными скобками обозначены град или гололедные отложения с указанием их диаметра в мм.
Облачность - указаны через наклонную черту общая и нижняя облачность в баллах и высота нижней границы облаков в метрах; квадратными скобками обозначены формы облаков: Ci - перистые, Cs - перисто-слоистые, Cc - перисто-кучевые, Ac - высококучевые, As - высокослоистые, Sc - слоисто-кучевые, Ns - слоисто-дождевые, Cu - кучевые, Cb - кучево-дождевые. Подробнее классификацию облаков см. в Атласе облаков (PDF).
T - Температура воздуха - температура, измеренная на высоте 2 м над землей.
Td - Температура точки росы - температура, при понижении до которой содержащийся в воздухе водяной пар достигнет насыщения.
f - Относительная влажность воздуха - влажноcть воздуха, измеренная на высоте 2 м над землей.
Te - Эффективная температура - температура, которую ощущает одетый по сезону человек в тени. Характеристика душности погоды. При расчете учитывается влияние влажности воздуха и скорости ветра на теплоощущения человека.
Tes - Эффективная температура на солнце - температура, которую ощущает человек, с поправкой на солнечный нагрев. Характеристика знойности погоды. Зависит от высоты солнца над горизонтом, облачности и скорости ветра. Ночью, в пасмурную погоду, а также при ветре 12 м/с и более поправка равна нулю.
P - Атмосферное давление - приведенное к уровню моря атмосферное давление.
Po - Атмосферное давление - измеренное на уровне метеостанции атмосферное давление.
Tmin - Минимальная температура - минимум температуры воздуха на высоте 2 м над землей.
Tmax - Максимальная температура - максимум температуры воздуха на высоте 2 м над землей.
R - Количество осадков - Количество выпавших осадков за период времени, мм. При наведении курсора мыши на число - период времени, за который выпало указанное количество осадков.
R24 - Количество осадков - Количество выпавших осадков за 24 часа, мм.
S - Снежный покров - Высота снежного покрова, см. При наведении курсора мыши на число - состояние снежного покрова и степень покрытия местности в баллах.